UAL1426 KSAN-KSLC

Flight info

Callsign UAL1426
Flight time 1h 31m
Altitude 37000
Route ZZOOO4 MTBAL CADEZ/N0455F380 HAKMN/N0455F370 Q73 LAKRR MLF QWENN6
Aircraft B739/M-SDE2E3FGHIRWXY/LB1

Departure

Time 2026-05-07 22:27
Airport San Diego International Airport (KSAN)

Arrival

Time 2026-05-07 23:58
Airport Salt Lake City International Airport (KSLC)
Time Latitude Longitude Altitude Speed Heading
2026-05-07 21:59 32.73347 -117.20056 29 ft 0 kts 263°
2026-05-07 22:15 32.73348 -117.20041 30 ft 4 kts 268°
2026-05-07 22:15 32.73346 -117.20010 29 ft 4 kts 294°
2026-05-07 22:16 32.73332 -117.19989 29 ft 4 kts 354°
2026-05-07 22:16 32.73325 -117.19989 27 ft 1 kts 11°
2026-05-07 22:16 32.73324 -117.19989 27 ft 0 kts 11°
2026-05-07 22:20 32.73326 -117.19988 28 ft 1 kts 11°
2026-05-07 22:20 32.73340 -117.19985 28 ft 3 kts 11°
2026-05-07 22:20 32.73370 -117.19978 25 ft 6 kts 10°
2026-05-07 22:21 32.73420 -117.19965 27 ft 9 kts 14°
2026-05-07 22:21 32.73474 -117.19920 26 ft 11 kts 72°
2026-05-07 22:21 32.73459 -117.19820 31 ft 14 kts 107°
2026-05-07 22:21 32.73429 -117.19694 26 ft 18 kts 105°
2026-05-07 22:22 32.73394 -117.19547 29 ft 20 kts 107°
2026-05-07 22:22 32.73351 -117.19371 27 ft 24 kts 106°
2026-05-07 22:22 32.73302 -117.19172 26 ft 26 kts 105°
2026-05-07 22:22 32.73253 -117.18964 27 ft 26 kts 104°
2026-05-07 22:23 32.73203 -117.18764 35 ft 25 kts 105°
2026-05-07 22:23 32.73154 -117.18562 25 ft 27 kts 105°
2026-05-07 22:23 32.73100 -117.18336 26 ft 29 kts 105°
2026-05-07 22:23 32.73043 -117.18102 22 ft 31 kts 105°
2026-05-07 22:24 32.72982 -117.17850 20 ft 33 kts 108°
2026-05-07 22:24 32.72951 -117.17704 18 ft 6 kts 84°
2026-05-07 22:24 32.72956 -117.17680 19 ft 0 kts 72°
2026-05-07 22:25 32.72957 -117.17676 19 ft 2 kts 72°
2026-05-07 22:25 32.72976 -117.17627 22 ft 11 kts 49°
2026-05-07 22:26 32.73032 -117.17639 22 ft 10 kts 296°
2026-05-07 22:26 32.73060 -117.17746 20 ft 41 kts 286°
2026-05-07 22:26 32.73224 -117.18424 25 ft 126 kts 286°
2026-05-07 22:26 32.73530 -117.19631 390 ft 159 kts 288°
2026-05-07 22:27 32.73863 -117.20891 1286 ft 172 kts 287°
2026-05-07 22:27 32.74194 -117.22293 2059 ft 189 kts 285°
2026-05-07 22:27 32.74576 -117.23933 2297 ft 220 kts 286°
2026-05-07 22:27 32.75003 -117.25734 2641 ft 232 kts 287°
2026-05-07 22:28 32.75450 -117.27603 3155 ft 238 kts 287°
2026-05-07 22:28 32.75905 -117.29491 3807 ft 239 kts 287°
2026-05-07 22:28 32.76365 -117.31402 4411 ft 242 kts 286°
2026-05-07 22:28 32.76460 -117.33401 4990 ft 248 kts 258°
2026-05-07 22:29 32.75685 -117.35240 5583 ft 255 kts 230°
2026-05-07 22:29 32.74256 -117.36462 6160 ft 262 kts 201°
2026-05-07 22:29 32.72447 -117.36753 6744 ft 266 kts 172°
2026-05-07 22:29 32.70730 -117.35954 7304 ft 268 kts 141°
2026-05-07 22:30 32.69436 -117.34386 7978 ft 266 kts 127°
2026-05-07 22:30 32.68321 -117.32636 8667 ft 266 kts 125°
2026-05-07 22:30 32.67214 -117.30868 9353 ft 268 kts 125°
2026-05-07 22:30 32.66091 -117.29111 10064 ft 268 kts 125°
2026-05-07 22:31 32.64949 -117.27349 10711 ft 270 kts 126°
2026-05-07 22:31 32.63795 -117.25577 11358 ft 272 kts 123°
2026-05-07 22:31 32.63019 -117.23544 11898 ft 275 kts 98°
2026-05-07 22:31 32.62789 -117.21211 12097 ft 296 kts 94°
2026-05-07 22:32 32.62589 -117.18686 12292 ft 317 kts 94°
2026-05-07 22:32 32.62363 -117.15996 12454 ft 338 kts 94°
2026-05-07 22:32 32.62111 -117.13145 12598 ft 357 kts 94°
2026-05-07 22:32 32.62062 -117.10160 12865 ft 367 kts 79°
2026-05-07 22:33 32.62822 -117.07264 13417 ft 369 kts 67°
2026-05-07 22:33 32.63792 -117.04443 14032 ft 370 kts 67°
2026-05-07 22:33 32.64753 -117.01595 14576 ft 373 kts 68°
2026-05-07 22:33 32.65705 -116.98711 15126 ft 377 kts 68°
2026-05-07 22:34 32.66585 -116.95770 15680 ft 380 kts 76°
2026-05-07 22:34 32.66802 -116.92669 16225 ft 385 kts 89°
2026-05-07 22:34 32.66804 -116.89473 16781 ft 388 kts 88°
2026-05-07 22:34 32.66855 -116.86248 17297 ft 391 kts 87°
2026-05-07 22:35 32.66928 -116.83005 17828 ft 395 kts 86°
2026-05-07 22:35 32.67192 -116.79765 18313 ft 395 kts 73°
2026-05-07 22:35 32.68318 -116.76800 18716 ft 396 kts 54°
2026-05-07 22:35 32.70146 -116.74350 19202 ft 397 kts 40°
2026-05-07 22:36 32.72468 -116.72579 19641 ft 400 kts 25°
2026-05-07 22:36 32.75043 -116.71304 20109 ft 402 kts 22°
2026-05-07 22:36 32.77653 -116.70066 20559 ft 405 kts 22°
2026-05-07 22:36 32.80250 -116.68842 20993 ft 408 kts 22°
2026-05-07 22:37 32.82038 -116.67991 21295 ft 410 kts 22°
2026-05-07 22:37 32.85564 -116.66291 21882 ft 413 kts 22°
2026-05-07 22:37 32.88230 -116.64983 22329 ft 416 kts 22°
2026-05-07 22:37 32.90912 -116.63674 22734 ft 419 kts 22°
2026-05-07 22:38 32.92705 -116.62796 23009 ft 421 kts 22°
2026-05-07 22:38 32.96338 -116.61009 23543 ft 424 kts 22°
2026-05-07 22:38 32.98145 -116.60121 23760 ft 426 kts 22°
2026-05-07 22:38 33.00904 -116.58766 24130 ft 428 kts 22°
2026-05-07 22:39 33.04543 -116.56915 24630 ft 430 kts 24°
2026-05-07 22:39 33.06394 -116.55947 24882 ft 431 kts 24°
2026-05-07 22:39 33.09130 -116.54505 25371 ft 429 kts 24°
2026-05-07 22:39 33.11868 -116.53059 25707 ft 432 kts 24°
2026-05-07 22:40 33.14629 -116.51604 25995 ft 435 kts 24°
2026-05-07 22:40 33.17407 -116.50145 26298 ft 437 kts 24°
2026-05-07 22:40 33.20197 -116.48681 26640 ft 439 kts 24°
2026-05-07 22:40 33.23007 -116.47208 26976 ft 441 kts 24°
2026-05-07 22:41 33.25786 -116.45751 27277 ft 443 kts 24°
2026-05-07 22:41 33.28619 -116.44264 27604 ft 446 kts 24°
2026-05-07 22:41 33.31464 -116.42769 27923 ft 447 kts 24°
2026-05-07 22:41 33.34321 -116.41268 28232 ft 449 kts 24°
2026-05-07 22:42 33.37185 -116.39758 28604 ft 450 kts 24°
2026-05-07 22:42 33.39859 -116.37834 29003 ft 450 kts 39°
2026-05-07 22:42 33.42013 -116.35129 29492 ft 450 kts 51°
2026-05-07 22:42 33.43827 -116.32087 30014 ft 448 kts 53°
2026-05-07 22:43 33.45601 -116.29027 30413 ft 447 kts 53°
2026-05-07 22:43 33.47378 -116.25971 30762 ft 447 kts 53°
2026-05-07 22:43 33.49153 -116.22944 31290 ft 441 kts 53°
2026-05-07 22:43 33.50920 -116.19954 31853 ft 436 kts 53°
2026-05-07 22:44 33.52678 -116.17000 32235 ft 435 kts 53°
2026-05-07 22:44 33.54442 -116.14043 32519 ft 437 kts 53°
2026-05-07 22:44 33.56207 -116.11083 32819 ft 437 kts 53°
2026-05-07 22:44 33.57974 -116.08117 33219 ft 435 kts 53°
2026-05-07 22:45 33.59703 -116.05210 33642 ft 432 kts 53°
2026-05-07 22:45 33.61622 -116.02400 33969 ft 430 kts 45°
2026-05-07 22:45 33.63735 -115.99914 34196 ft 430 kts 43°
2026-05-07 22:45 33.65940 -115.97482 34443 ft 431 kts 39°
2026-05-07 22:46 33.68367 -115.95389 34690 ft 430 kts 30°
2026-05-07 22:46 33.70982 -115.93640 34983 ft 429 kts 28°
2026-05-07 22:46 33.73595 -115.91922 35219 ft 429 kts 28°
2026-05-07 22:46 33.76215 -115.90197 35475 ft 429 kts 28°
2026-05-07 22:47 33.78830 -115.88466 35731 ft 429 kts 28°
2026-05-07 22:47 33.81434 -115.86729 35983 ft 428 kts 29°
2026-05-07 22:47 33.84037 -115.84983 36195 ft 428 kts 29°
2026-05-07 22:47 33.86641 -115.83230 36416 ft 429 kts 29°
2026-05-07 22:48 33.89235 -115.81478 36652 ft 428 kts 29°
2026-05-07 22:48 33.91832 -115.79722 36870 ft 428 kts 29°
2026-05-07 22:48 33.94443 -115.77955 36856 ft 431 kts 29°
2026-05-07 22:49 33.99668 -115.74413 36875 ft 429 kts 29°
2026-05-07 22:49 34.04854 -115.70895 36875 ft 426 kts 29°
2026-05-07 22:50 34.09922 -115.67452 36873 ft 423 kts 29°
2026-05-07 22:50 34.15083 -115.63941 36870 ft 422 kts 29°
2026-05-07 22:51 34.20209 -115.60449 36855 ft 422 kts 29°
2026-05-07 22:51 34.25327 -115.56957 36854 ft 423 kts 29°
2026-05-07 22:52 34.30453 -115.53455 36850 ft 424 kts 29°
2026-05-07 22:52 34.35594 -115.49938 36853 ft 425 kts 29°
2026-05-07 22:53 34.40739 -115.46412 36851 ft 426 kts 30°
2026-05-07 22:53 34.45904 -115.42868 36850 ft 427 kts 30°
2026-05-07 22:54 34.51071 -115.39318 36857 ft 427 kts 29°
2026-05-07 22:54 34.56220 -115.35775 36854 ft 428 kts 29°
2026-05-07 22:55 34.61403 -115.32203 36871 ft 428 kts 30°
2026-05-07 22:55 34.66594 -115.28621 36856 ft 429 kts 30°
2026-05-07 22:56 34.71777 -115.25039 36861 ft 428 kts 30°
2026-05-07 22:56 34.76961 -115.21451 36855 ft 428 kts 30°
2026-05-07 22:57 34.82127 -115.17871 36864 ft 427 kts 30°
2026-05-07 22:57 34.87284 -115.14291 36866 ft 426 kts 30°
2026-05-07 22:58 34.92434 -115.10711 36872 ft 426 kts 30°
2026-05-07 22:58 34.97576 -115.07132 36871 ft 426 kts 30°
2026-05-07 22:59 35.02723 -115.03543 36880 ft 426 kts 30°
2026-05-07 22:59 35.07836 -114.99973 36892 ft 426 kts 30°
2026-05-07 23:00 35.12979 -114.96378 36900 ft 425 kts 30°
2026-05-07 23:00 35.18117 -114.92779 36901 ft 426 kts 30°
2026-05-07 23:01 35.23256 -114.89175 36898 ft 426 kts 30°
2026-05-07 23:01 35.28397 -114.85565 36911 ft 426 kts 30°
2026-05-07 23:02 35.33534 -114.81951 36917 ft 426 kts 30°
2026-05-07 23:02 35.38683 -114.78325 36927 ft 427 kts 30°
2026-05-07 23:03 35.43786 -114.74725 36912 ft 427 kts 30°
2026-05-07 23:03 35.48943 -114.71082 36921 ft 427 kts 30°
2026-05-07 23:04 35.54063 -114.67459 36927 ft 427 kts 30°
2026-05-07 23:04 35.59220 -114.63804 36928 ft 427 kts 30°
2026-05-07 23:05 35.64365 -114.60153 36924 ft 427 kts 30°
2026-05-07 23:05 35.69518 -114.56491 36898 ft 427 kts 30°
2026-05-07 23:06 35.74667 -114.52826 36908 ft 427 kts 30°
2026-05-07 23:06 35.79816 -114.49155 36860 ft 428 kts 30°
2026-05-07 23:07 35.84963 -114.45479 36868 ft 427 kts 30°
2026-05-07 23:07 35.90107 -114.41801 36860 ft 427 kts 30°
2026-05-07 23:08 35.95253 -114.38116 36879 ft 427 kts 30°
2026-05-07 23:08 36.00399 -114.34426 36875 ft 427 kts 30°
2026-05-07 23:09 36.05539 -114.30732 36857 ft 427 kts 30°
2026-05-07 23:09 36.10726 -114.27246 36859 ft 426 kts 24°
2026-05-07 23:10 36.16156 -114.24314 36877 ft 425 kts 23°
2026-05-07 23:10 36.21603 -114.21445 36876 ft 425 kts 23°
2026-05-07 23:11 36.27038 -114.18534 36870 ft 425 kts 23°
2026-05-07 23:11 36.32462 -114.15593 36858 ft 426 kts 24°
2026-05-07 23:12 36.37884 -114.12636 36889 ft 425 kts 23°
2026-05-07 23:12 36.43307 -114.09673 36875 ft 426 kts 23°
2026-05-07 23:13 36.48736 -114.06703 36897 ft 426 kts 23°
2026-05-07 23:13 36.54130 -114.03747 36882 ft 426 kts 23°
2026-05-07 23:14 36.59548 -114.00773 36874 ft 426 kts 24°
2026-05-07 23:14 36.64966 -113.97779 36899 ft 425 kts 23°
2026-05-07 23:15 36.70382 -113.94809 36912 ft 425 kts 23°
2026-05-07 23:15 36.75792 -113.91831 36899 ft 425 kts 23°
2026-05-07 23:16 36.81210 -113.88835 36912 ft 426 kts 23°
2026-05-07 23:16 36.86636 -113.85838 36925 ft 426 kts 23°
2026-05-07 23:17 36.92021 -113.82853 36914 ft 427 kts 23°
2026-05-07 23:17 36.97450 -113.79845 36921 ft 427 kts 23°
2026-05-07 23:18 37.02882 -113.76830 36938 ft 427 kts 23°
2026-05-07 23:18 37.08312 -113.73809 36946 ft 427 kts 23°
2026-05-07 23:19 37.13720 -113.70795 36940 ft 427 kts 22°
2026-05-07 23:19 37.19147 -113.67763 36939 ft 427 kts 22°
2026-05-07 23:20 37.24568 -113.64736 36947 ft 426 kts 22°
2026-05-07 23:20 37.29981 -113.61706 36927 ft 425 kts 22°
2026-05-07 23:21 37.35381 -113.58676 36926 ft 425 kts 22°
2026-05-07 23:21 37.40785 -113.55640 36918 ft 425 kts 22°
2026-05-07 23:22 37.46160 -113.52616 36936 ft 427 kts 22°
2026-05-07 23:22 37.51593 -113.49555 36926 ft 428 kts 22°
2026-05-07 23:23 37.57040 -113.46480 36947 ft 429 kts 22°
2026-05-07 23:23 37.62503 -113.43391 36982 ft 431 kts 22°
2026-05-07 23:24 37.67057 -113.40814 37000 ft 431 kts 22°
2026-05-07 23:24 37.72531 -113.37710 37014 ft 431 kts 22°
2026-05-07 23:25 37.77997 -113.34605 37019 ft 430 kts 22°
2026-05-07 23:25 37.83453 -113.31501 37014 ft 429 kts 22°
2026-05-07 23:26 37.88889 -113.28404 36996 ft 428 kts 22°
2026-05-07 23:26 37.93390 -113.25835 36984 ft 427 kts 22°
2026-05-07 23:27 38.02391 -113.20689 36933 ft 426 kts 22°
2026-05-07 23:27 38.07790 -113.17594 36945 ft 426 kts 22°
2026-05-07 23:28 38.13203 -113.14488 36966 ft 427 kts 21°
2026-05-07 23:28 38.18622 -113.11373 36978 ft 428 kts 21°
2026-05-07 23:29 38.24051 -113.08246 37018 ft 428 kts 21°
2026-05-07 23:29 38.29476 -113.05115 37028 ft 428 kts 21°
2026-05-07 23:30 38.34901 -113.01981 37045 ft 428 kts 21°
2026-05-07 23:30 38.40354 -112.98950 37047 ft 427 kts 19°
2026-05-07 23:31 38.45848 -112.96066 37048 ft 427 kts 19°
2026-05-07 23:31 38.51338 -112.93171 37041 ft 427 kts 19°
2026-05-07 23:32 38.56788 -112.90269 37019 ft 427 kts 20°
2026-05-07 23:32 38.62266 -112.87337 37000 ft 427 kts 19°
2026-05-07 23:33 38.67740 -112.84402 36960 ft 426 kts 19°
2026-05-07 23:33 38.73214 -112.81463 36947 ft 426 kts 19°
2026-05-07 23:34 38.78676 -112.78525 36947 ft 425 kts 19°
2026-05-07 23:34 38.84130 -112.75587 36944 ft 425 kts 19°
2026-05-07 23:35 38.89550 -112.72664 36926 ft 425 kts 19°
2026-05-07 23:35 38.95008 -112.69715 36743 ft 428 kts 19°
2026-05-07 23:36 38.97781 -112.68217 36139 ft 433 kts 19°
2026-05-07 23:36 39.00543 -112.66721 35417 ft 433 kts 19°
2026-05-07 23:36 39.03321 -112.65214 34658 ft 434 kts 19°
2026-05-07 23:36 39.06111 -112.63700 33865 ft 436 kts 19°
2026-05-07 23:37 39.08058 -112.62642 33214 ft 438 kts 19°
2026-05-07 23:37 39.10843 -112.61129 32353 ft 440 kts 19°
2026-05-07 23:37 39.13639 -112.59608 31490 ft 441 kts 19°
2026-05-07 23:37 39.16463 -112.58070 30857 ft 438 kts 19°
2026-05-07 23:38 39.19261 -112.56543 30253 ft 434 kts 19°
2026-05-07 23:38 39.21999 -112.55049 29604 ft 430 kts 19°
2026-05-07 23:38 39.24773 -112.53535 28936 ft 426 kts 19°
2026-05-07 23:38 39.27453 -112.52071 28360 ft 420 kts 19°
2026-05-07 23:39 39.30133 -112.50606 27758 ft 416 kts 19°
2026-05-07 23:39 39.32776 -112.49129 27155 ft 412 kts 19°
2026-05-07 23:39 39.35390 -112.47633 26552 ft 409 kts 20°
2026-05-07 23:39 39.37976 -112.46139 25973 ft 405 kts 20°
2026-05-07 23:40 39.40535 -112.44659 25431 ft 402 kts 19°
2026-05-07 23:40 39.43086 -112.43187 24864 ft 399 kts 19°
2026-05-07 23:40 39.45615 -112.41730 24300 ft 397 kts 19°
2026-05-07 23:40 39.48129 -112.40283 23746 ft 395 kts 19°
2026-05-07 23:41 39.50631 -112.38844 23121 ft 393 kts 19°
2026-05-07 23:41 39.53124 -112.37408 22520 ft 389 kts 19°
2026-05-07 23:41 39.55589 -112.35987 21962 ft 386 kts 19°
2026-05-07 23:41 39.58033 -112.34577 21402 ft 383 kts 19°
2026-05-07 23:42 39.60452 -112.33180 20873 ft 380 kts 19°
2026-05-07 23:42 39.62861 -112.31788 20330 ft 377 kts 19°
2026-05-07 23:42 39.65251 -112.30407 19774 ft 376 kts 19°
2026-05-07 23:42 39.67641 -112.29025 19245 ft 374 kts 19°
2026-05-07 23:43 39.70014 -112.27651 18730 ft 372 kts 19°
2026-05-07 23:43 39.72369 -112.26287 18180 ft 372 kts 19°
2026-05-07 23:43 39.74698 -112.24938 17601 ft 369 kts 19°
2026-05-07 23:43 39.77037 -112.23581 17073 ft 366 kts 19°
2026-05-07 23:44 39.79358 -112.22233 16533 ft 364 kts 19°
2026-05-07 23:44 39.81666 -112.20891 16014 ft 362 kts 19°
2026-05-07 23:44 39.83957 -112.19558 15490 ft 360 kts 19°
2026-05-07 23:44 39.86239 -112.18231 14987 ft 358 kts 19°
2026-05-07 23:45 39.88511 -112.16909 14515 ft 356 kts 19°
2026-05-07 23:45 39.90727 -112.15615 14369 ft 344 kts 19°
2026-05-07 23:45 39.92877 -112.14359 14201 ft 333 kts 19°
2026-05-07 23:45 39.94965 -112.13139 14060 ft 323 kts 19°
2026-05-07 23:46 39.96987 -112.11963 13898 ft 314 kts 19°
2026-05-07 23:46 39.98980 -112.10947 13794 ft 302 kts 13°
2026-05-07 23:46 40.00977 -112.10157 13641 ft 298 kts 11°
2026-05-07 23:46 40.02971 -112.09418 13494 ft 297 kts 11°
2026-05-07 23:47 40.04940 -112.08686 13356 ft 301 kts 11°
2026-05-07 23:47 40.06992 -112.07907 13209 ft 304 kts 12°
2026-05-07 23:47 40.08991 -112.07134 13086 ft 303 kts 12°
2026-05-07 23:47 40.11010 -112.06343 12944 ft 303 kts 12°
2026-05-07 23:48 40.13024 -112.05547 12790 ft 302 kts 12°
2026-05-07 23:48 40.15037 -112.04748 12667 ft 301 kts 12°
2026-05-07 23:48 40.17039 -112.03950 12519 ft 301 kts 12°
2026-05-07 23:48 40.19046 -112.03148 12383 ft 300 kts 12°
2026-05-07 23:49 40.21037 -112.02352 12252 ft 300 kts 13°
2026-05-07 23:49 40.23035 -112.01552 12106 ft 300 kts 13°
2026-05-07 23:49 40.25030 -112.00753 11965 ft 300 kts 13°
2026-05-07 23:49 40.27024 -111.99952 11831 ft 300 kts 12°
2026-05-07 23:50 40.29019 -111.99152 11698 ft 300 kts 12°
2026-05-07 23:50 40.31017 -111.98349 11547 ft 300 kts 13°
2026-05-07 23:50 40.33020 -111.97545 11403 ft 301 kts 13°
2026-05-07 23:50 40.34999 -111.96749 11257 ft 300 kts 13°
2026-05-07 23:51 40.36971 -111.95954 11095 ft 292 kts 13°
2026-05-07 23:51 40.38877 -111.95185 10986 ft 281 kts 12°
2026-05-07 23:51 40.40727 -111.94479 10983 ft 275 kts 11°
2026-05-07 23:51 40.42572 -111.93802 10979 ft 274 kts 11°
2026-05-07 23:52 40.44427 -111.93381 10806 ft 272 kts 354°
2026-05-07 23:52 40.46347 -111.93610 10340 ft 280 kts 349°
2026-05-07 23:52 40.48302 -111.93890 9915 ft 283 kts 350°
2026-05-07 23:52 40.50223 -111.94139 9497 ft 277 kts 351°
2026-05-07 23:53 40.52082 -111.94364 9298 ft 258 kts 351°
2026-05-07 23:53 40.53847 -111.94570 8869 ft 248 kts 351°
2026-05-07 23:53 40.55508 -111.94764 8534 ft 236 kts 352°
2026-05-07 23:53 40.57114 -111.94952 8224 ft 226 kts 351°
2026-05-07 23:54 40.58645 -111.95127 7912 ft 216 kts 349°
2026-05-07 23:54 40.60109 -111.95285 7627 ft 206 kts 351°
2026-05-07 23:54 40.61503 -111.95460 7363 ft 197 kts 351°
2026-05-07 23:54 40.62838 -111.95639 7127 ft 192 kts 353°
2026-05-07 23:55 40.64167 -111.95886 6888 ft 195 kts 351°
2026-05-07 23:55 40.65496 -111.96163 6609 ft 193 kts 351°
2026-05-07 23:55 40.66800 -111.96453 6318 ft 187 kts 351°
2026-05-07 23:55 40.68074 -111.96648 6053 ft 181 kts 356°
2026-05-07 23:56 40.69314 -111.96663 5841 ft 178 kts 359°
2026-05-07 23:56 40.70574 -111.96607 5746 ft 182 kts
2026-05-07 23:56 40.71829 -111.96577 5568 ft 178 kts 354°
2026-05-07 23:56 40.73062 -111.96662 5341 ft 179 kts 351°
2026-05-07 23:57 40.74349 -111.96840 5033 ft 194 kts 349°
2026-05-07 23:57 40.75697 -111.97076 4690 ft 198 kts 353°
2026-05-07 23:57 40.77033 -111.97246 4420 ft 185 kts 351°
2026-05-07 23:57 40.78139 -111.97386 4256 ft 169 kts 352°
2026-05-07 23:58 40.79103 -111.97502 4231 ft 91 kts 355°
2026-05-07 23:58 40.79376 -111.97553 4228 ft 16 kts 345°
2026-05-07 23:58 40.79500 -111.97620 4228 ft 18 kts 330°
2026-05-07 23:58 40.79538 -111.97660 4228 ft 6 kts 311°
2026-05-07 23:59 40.79529 -111.97749 4229 ft 16 kts 215°
2026-05-07 23:59 40.79438 -111.97761 4229 ft 21 kts 178°
2026-05-07 23:59 40.79271 -111.97742 4230 ft 22 kts 175°
2026-05-07 23:59 40.79128 -111.97725 4230 ft 20 kts 174°
2026-05-08 00:00 40.78995 -111.97710 4231 ft 19 kts 175°
2026-05-08 00:00 40.78888 -111.97699 4230 ft 10 kts 177°
2026-05-08 00:00 40.78835 -111.97738 4230 ft 5 kts 232°
2026-05-08 00:00 40.78807 -111.97776 4229 ft 6 kts 210°
2026-05-08 00:01 40.78766 -111.97796 4230 ft 7 kts 221°
2026-05-08 00:01 40.78748 -111.97862 4230 ft 8 kts 265°
2026-05-08 00:01 40.78743 -111.97945 4230 ft 10 kts 264°
2026-05-08 00:01 40.78736 -111.98039 4230 ft 11 kts 265°
2026-05-08 00:02 40.78729 -111.98142 4230 ft 12 kts 264°
2026-05-08 00:02 40.78722 -111.98256 4230 ft 13 kts 264°
2026-05-08 00:02 40.78713 -111.98377 4230 ft 14 kts 265°
2026-05-08 00:02 40.78705 -111.98509 4230 ft 15 kts 264°
2026-05-08 00:03 40.78696 -111.98624 4230 ft 6 kts 263°
2026-05-08 00:03 40.78693 -111.98688 4230 ft 8 kts 264°
2026-05-08 00:03 40.78683 -111.98754 4229 ft 5 kts 242°
2026-05-08 00:03 40.78659 -111.98774 4230 ft 5 kts 191°
2026-05-08 00:04 40.78630 -111.98774 4230 ft 1 kts 175°
2026-05-08 00:04 40.78618 -111.98773 4230 ft 2 kts 176°
2026-05-08 00:04 40.78612 -111.98773 4230 ft 1 kts 175°